www.pogodaiklimat.ru
ПОГОДА в Чолутеке
Время
(UTC), дата
18 23.10
21 23.10
00 24.10
12 24.10
15 24.10
18 24.10
21 24.10
00 25.10
12 25.10
15 25.10
18 25.10
21 25.10
00 26.10
12 26.10
15 26.10
18 26.10
21 26.10
00 27.10
12 27.10
15 27.10
18 27.10
21 27.10
00 28.10
12 28.10
15 28.10
18 28.10
21 28.10
00 29.10
15 29.10
18 29.10
21 29.10
00 30.10
12 30.10
15 30.10
Ветер
(напр.,м/с)
Видим. Явления Облачность Т
(С)
Тd
(С)
f
(%)
Тe
(С)
Тes
(С)
Комфортность P
(гПа)
Po
(гПа)
Тmin
(С)
Tmax
(С)
R
(мм)
R24
(мм)
S
(см)
З 2 15 км мгла 9/0 600 м
[Ac As Cs]
+32.4 +24.0 61 +49 +53 опасность
перегрева
1013.0 1007.3 +24.0 +32.4
СЗ 4 15 км гроза без осадков {туман} 9/4 600 м
[Sc diur, vesp Ac und Cs]
+28.4 +24.6 80 +40 +41 очень
душно
1012.7 1007.0
штиль 0 15 км {гроза, снег} 9/9 600 м
[Sc diur, vesp Ac und Cs]
+32.8 +24.0 60 +39 +39 очень
душно
1013.4 1007.7 +24.0 +32.8 9.7
штиль 0 10 км дымка 9/5 200 м
[Sc diur, vesp Ac und Cs]
+32.8 +23.2 57 +32 +32 жарко 1013.5 1007.8 +23.2 +32.8 49
штиль 0 15 км мгла 9/4 300 м
[Cu Sc Ac trans]
+27.0 +24.0 84 +37 +41 очень
душно
1012.9 1007.2
нст 1 15 км мгла 9/5 900 м
[Cu med, cong Ac trans]
+31.6 +25.8 71 +47 +52 опасность
перегрева
1012.5 1006.8 +23.2 +31.6
Ю 4 20 км мгла 9/4 960 м
[Cb calv Ac und Cs]
+31.2 +25.6 72 +46 +47 опасность
перегрева
1012.7 1007.0
штиль 0 15 км мгла {гроза} 9/6 960 м
[Cb cap Ac trans Ci ing]
+27.4 +25.0 87 +39 +39 очень
душно
1013.3 1007.6 +23.2 +32.4 49.2
0 н/о
штиль 0 10 км мгла 9/5 900 м
[Cu med, cong Ac As]
+27.6 +24.6 84 +39 +42 очень
душно
1013.1 1007.4
Ю 3 10 км мгла 9/5 900 м
[Cu med, cong Ac trans Ci fib]
+29.8 +25.8 79 +44 +49 опасность
перегрева
1012.7 1007.0 +24.0 +29.8
З 3 10 км мгла 8/5 900 м
[Cb calv Ac As Ci fib]
+29.6 +24.5 74 +42 +44 опасность
перегрева
1012.7 1007.0
штиль 0 7000 м слаб. дождь {туман} 9/5 840 м
[Cb calv Ac As]
+27.4 +25.5 89 +40 +40 очень
душно
1013.4 1007.7 +24.0 +30.2 0.3 3.0
штиль 0 5000 м слаб. дождь 10/4 840 м
[Sc As op]
+24.4 +24.4 100 +34 +34 очень
душно
1013.6 1007.9 +24.4 +30.2 1
штиль 0 10 км дымка {дождь, туман} 9/5 240 м
[Sc diur, vesp Ac As Ci fib]
+26.0 +24.9 94 +37 +41 очень
душно
1013.2 1007.5 1
Ю 2 20 км мгла 9/5 900 м
[Cu med, cong Ac trans Ci fib]
+31.2 +25.6 72 +46 +51 опасность
перегрева
1012.5 1006.8 +24.4 +31.2 1
Ю 3 10 км мгла 9/6 900 м
[Cb cap Ac As Ci sp]
+30.6 +25.8 76 +46 +47 опасность
перегрева
1012.7 1007.0
штиль 0 20 км мгла 9/8 840 м
[Cb cap Ac As]
+28.0 +25.0 84 +40 +40 очень
душно
1012.9 1007.2 +24.4 +32.2 24.4
штиль 0 6000 м дымка 10/5 210 м
[Sc As op]
+24.8 +24.0 95 +34 +34 очень
душно
1013.7 1008.0 +24.8 +32.2
С 2 10 км мгла 9/5 900 м
[Sc diur, vesp Ac und Cs]
+28.0 +25.0 84 +40 +43 очень
душно
1013.4 1007.7
штиль 0 10 км мгла {дождь} 9/5 900 м
[Cb cap Ac As]
+28.6 +25.4 83 +42 +47 опасность
перегрева
1012.9 1007.2 +24.8 +28.6 0.2
штиль 0 7000 м гроза без осадков 10/10 180 м
[Sc diur, vesp Ac und Cs]
+25.8 +24.4 92 +36 +36 очень
душно
1012.7 1007.0 2
штиль 0 15 км мгла {гроза, дождь} 9/4 180 м
[Sc Ac As]
+24.6 +23.8 95 +33 +33 очень
душно
1013.2 1007.5 +24.6 +29.0 2 3.0
штиль 0 7000 м дымка 9/5 240 м
[Sc Ac trans Ci fib]
+23.6 +22.8 95 +31 +31 очень
душно
1013.8 1008.1 +23.6 +29.0
В 2 20 км мгла 8/0 600 м
[Ac As Cs]
+28.4 +25.2 83 +41 +45 опасность
перегрева
1013.1 1007.4
С 2 20 км мгла 9/0 600 м
[Ac As Cs]
+33.4 +23.6 57 +49 +57 опасность
перегрева
1012.4 1006.7 +23.6 +33.4
ЮВ 4 3000 м гроза, ливневой дождь 9/9 600 м
[Sc diur, vesp Ac und Cs]
+26.6 +25.5 94 +39 +40 очень
душно
1013.3 1007.6 4
штиль 0 15 км {морось} 9/5 600 м
[Sc diur, vesp Ac und Cs]
+34.0 +23.6 55 +36 +36 душно 1013.4 1007.7 +23.6 +34.0 17 20.5
штиль 0 10 км мгла 9/3 900 м
[Sc Ac As Ci fib]
+25.6 +25.3 98 +37 +42 очень
душно
1007.7
штиль 0 20 км мгла 8/6 600 м
[Sc diur, vesp Ac und Cs]
+32.6 +23.6 59 +50 +61 опасность
перегрева
1012.7 1007.0 +23.6 +32.6
Ю 3 20 км гроза без осадков {туман} 5/1 600 м
[Cu Sc Ac trans]
+30.2 +26.0 78 +45 +48 опасность
перегрева
1013.1 1007.4
штиль 0 10 км мгла {пыльная буря} 8/3 600 м
[Cu Sc Ac trans]
+32.6 +23.6 59 +46 +46 опасность
перегрева
1013.7 1008.0 +23.6 +32.6 53.2
штиль 0 10 км дымка 9/4 200 м
[St As op Cs]
+32.6 +22.8 56 +31 +31 жарко 1014.0 1008.3 +22.8 +32.6 9
штиль 0 15 км мгла 5/3 900 м
[Cu hum Ci fib]
+26.8 +24.9 89 +38 +46 очень
душно
1013.8 1008.1
Местоположение метеостанции Чолутека (Гондурас): широта 13.30 долгота -87.18 высота над уровнем моря 48 м.
В архиве по умолчанию представлена погода в Чолутеке за последнюю неделю. Архивные данные за месяц целиком и за предыдущие месяцы, начиная с января 2011 года, Вы можете получить, выбрав интересующий диапазон дат из раскрывающегося списка и нажав кнопку "Найти!".
*Определитесь, кто Вы:
Внимание! Время в таблицах - всемирное. Для получения местного времени необходимо прибавить поправку, которая равна -6 ч.
Смотрите также архив погоды в соседних городах и на ближайших метеорологических станциях:
Партнеры нашего сайта:      
Пояснения к столбцам:
  • Ветер - указаны скорость ветра в м/с - средняя за 10 мин, порывы в срок и между сроками (в фигурных скобках) и направление, откуда дует ветер: С - северный,
  • СВ - северо-восточный, В - восточный, ЮВ - юго-восточный, Ю - южный, ЮЗ - юго-западный, З - западный, СЗ - северо-западный.
  • Видимость - горизонтальная дальность видимости в метрах или километрах. При видимости от 1 до 10 км при отсутствии осадков обычно наблюдается дымка, при ухудшении видимости до 1 км и менее - туман. В сухую погоду видимость может ухудшаться дымом, пылью или мглою.
  • Явления - указаны атмосферные явления, наблюдавшиеся в срок или в последний час перед сроком; фигурными скобками обозначены явления, наблюдавшиеся между сроками (за 1-3 часа до срока); квадратными скобками обозначены град или гололедные отложения с указанием их диаметра в мм.
  • Облачность - указаны через наклонную черту общая и нижняя облачность в баллах и высота нижней границы облаков в метрах; квадратными скобками обозначены формы облаков: Ci - перистые, Cs - перисто-слоистые, Cc - перисто-кучевые, Ac - высококучевые, As - высокослоистые, Sc - слоисто-кучевые, Ns - слоисто-дождевые, Cu - кучевые, Cb - кучево-дождевые. Подробнее классификацию облаков см. в Атласе облаков (PDF).
  • T - Температура воздуха - температура, измеренная на высоте 2 м над землей.
  • Td - Температура точки росы - температура, при понижении до которой содержащийся в воздухе водяной пар достигнет насыщения.
  • f - Относительная влажность воздуха - влажноcть воздуха, измеренная на высоте 2 м над землей.
  • Te - Эффективная температура - температура, которую ощущает одетый по сезону человек в тени. Характеристика душности погоды. При расчете учитывается влияние влажности воздуха и скорости ветра на теплоощущения человека.
  • Tes - Эффективная температура на солнце - температура, которую ощущает человек, с поправкой на солнечный нагрев. Характеристика знойности погоды. Зависит от высоты солнца над горизонтом, облачности и скорости ветра. Ночью, в пасмурную погоду, а также при ветре 12 м/с и более поправка равна нулю.
  • P - Атмосферное давление - приведенное к уровню моря атмосферное давление.
  • Po - Атмосферное давление - измеренное на уровне метеостанции атмосферное давление.
  • Tmin - Минимальная температура - минимум температуры воздуха на высоте 2 м над землей.
  • Tmax - Максимальная температура - максимум температуры воздуха на высоте 2 м над землей.
  • R - Количество осадков - Количество выпавших осадков за период времени, мм. При наведении курсора мыши на число - период времени, за который выпало указанное количество осадков.
  • R24 - Количество осадков - Количество выпавших осадков за 24 часа, мм.
  • S - Снежный покров - Высота снежного покрова, см. При наведении курсора мыши на число - состояние снежного покрова и степень покрытия местности в баллах.